User: anonymous   Login
Location: Unspecified
(0.0000°N, 0.0000°E)
Time: 03:26:35
(UTC+00:00)
Language:

FO-29 - Orbit

View from above orbital plane
View from above orbital plane
View from above satellite
View from above satellite

Ground track
Ground track

The orbit data is extracted from the following two-line orbital elements,

1 24278U 96046B   19228.92818206 -.00000044 +00000-0 -11938-4 0  9992
2 24278 098.5458 014.3191 0351360 086.4497 277.6752 13.53092799135563
Epoch (UTC): 16 August 2019 22:16:34
Eccentricity: 0.0351360
inclination: 98.5458°
perigee height: 799 km
apogee height: 1322 km
right ascension of ascending node: 14.3191°
argument of perigee: 86.4497°
revolutions per day: 13.53092799
mean anomaly at epoch: 277.6752°
orbit number at epoch: 13556

The dashed part of the orbit path shows where the satellite is in the earth's shadow,  

DLR